Tracking 32407 objects as of 5-Dec-2025
HD Live streaming from Space Station
objects crossing your sky now

CHAMRAN-1

Track CHAMRAN-1 now!
10-day predictions


NORAD ID: 61072
Int'l Code: 2024-165B
Perigee: 520.9 km
Apogee: 572.3 km
Inclination: 64.1 °
Period: 95.4 minutes
Semi major axis: 6917 km
RCS: Unknown
Launch date: September 14, 2024
Source: Iran (IRAN)
Launch site: Sharud Missile Test Site (SMTS)
Your satellite tracking list
Your tracking list is empty




NASA's NSSDC Master Catalog

Two Line Element Set (TLE):
1 61072U 24165B   25338.78200759  .00012583  00000-0  79182-3 0  9992
2 61072  64.0778 320.5314 0037096 312.4578  47.3401 15.08935331 67306
Source of the keplerian elements: AFSPC